Location: Corsier
(46.2637°N, 6.2238°E)
Time: 17:22:00
(UTC+00:00)

NOSS 2-1 (E) - Pass Details

Date: 07 June 2020
Orbit: 446 x 1757 km, 63.3° (Epoch: 25 June)

Event Time Altitude Azimuth Distance (km) Brightness Sun altitude
Exits shadow 02:05:20 20° 242° (WSW) 1,090 4.3 -12.9°
Maximum altitude 02:07:26 53° 313° (NW) 572 3.4 -12.7°
Drops below altitude 10° 02:11:04 10° 32° (NNE) 1,731 7.4 -12.3°
Sets 02:13:28 0° 37° (NE) 2,747 9.1 -12.1°
